Flag for South Korea Weather past 2 weeks in Busan, South Korea

Now
54 °F

Clear.


Feels Like: 52 °F
Forecast: 52 / 68 °F
Wind: 6 mph from Northeast

Location: Pusan / Kimhae International Airport

Current Time: Oct 23, 2014 at 11:07:50 PM

Latest Report: Oct 23, 2014 at 10:00 PM


Visibility: 10 mi

Pressure: 30.12 "Hg

Humidity: 88%

Dew point: 50 °F

Location of BusanLocation

Historic Weather in Busan — Graph

°F

Busan temperature yesterday

Maximum temperature yesterday: 61 °F (at 12:00 AM)
Minimum temperature yesterday: 55 °F (at 9:00 PM)
Average temperature yesterday: 59 °F

Past Weeks' High & Low Weather Summary

 TemperatureHumidityPressure
High77 °F (Oct 9, 3:00 PM)94% (Oct 10, 4:00 AM)30.27 "Hg (Oct 10, 4:00 AM)
Low45 °F (Oct 18, 6:00 AM)23% (Oct 17, 1:00 PM)29.62 "Hg (Oct 13, 11:00 AM)
Average62 °F70%30.07 "Hg
* Reported Oct 8 10:00 PM — Oct 23 10:00 PM, Busan, Weather by CustomWeather, © 2014

Note: Actual official high and low records may vary slightly from our data, if they occured in-between our weather recording intervals... More about our weather records

Advertising

Busan weather history for previous 24 hours

 ConditionsComfort  
Time TempWeatherWind HumidityBarometerVisibility
10:00 PM
Oct 23
54 °FClear.6 mph88%30.12 "Hg10 mi
9:00 PM54 °FClear.5 mph82%30.12 "Hg10 mi
8:00 PM57 °FClear.1 mph77%30.12 "Hg10 mi
7:00 PM61 °FClear.1 mph68%30.12 "Hg10 mi
6:00 PM61 °FPassing clouds.3 mph68%30.09 "HgN/A
5:00 PM64 °FPartly sunny.6 mph56%30.09 "HgN/A
4:00 PM64 °FScattered clouds.8 mph56%30.09 "HgN/A
3:00 PM70 °FScattered clouds.3 mph43%30.09 "HgN/A
2:00 PM66 °FScattered clouds.3 mph46%30.09 "HgN/A
1:00 PM66 °FScattered clouds.3 mph49%30.12 "HgN/A
12:00 PM64 °FScattered clouds.5 mph52%30.15 "HgN/A
11:00 AM64 °FPassing clouds.3 mph56%30.18 "HgN/A
10:00 AM61 °FPassing clouds.6 mph63%30.18 "HgN/A
9:00 AM57 °FScattered clouds.3 mph77%30.18 "HgN/A
8:00 AM54 °FPartly sunny.2 mph88%30.18 "HgN/A
7:00 AM52 °FPartly sunny.2 mph88%30.18 "HgN/A
6:00 AM52 °FPassing clouds.5 mph88%30.15 "HgN/A
5:00 AM52 °FPassing clouds.3 mph88%30.15 "HgN/A
4:00 AM54 °FPassing clouds.3 mph82%30.16 "HgN/A
3:00 AM55 °FPassing clouds.2 mph82%30.16 "HgN/A
2:00 AM55 °FPassing clouds.3 mph77%30.16 "HgN/A
1:00 AM55 °FPassing clouds.3 mph82%30.17 "HgN/A
12:00 AM55 °FPassing clouds.6 mph77%30.17 "HgN/A
11:00 PM
Oct 22
57 °FPassing clouds.6 mph72%30.15 "HgN/A
Weather by CustomWeather, © 2014

See weather overviewHow to use our weather pages